Regional Weather Roundup
Issued by NWS

Home | Current Version | Previous Version | Graphics & Text | Print | Product List | Glossary On
Versions: 1 2 3 4 5 6 7 8 9 10 11 12 13 14 15 16 17 18 19 20 21 22 23 24 25 26 27 28 29 30 31 32 33 34 35 36 37 38 39 40 41 42 43 44 45 46 47 48 49 50
000
ASUS43 KDMX 210206
RWRIA

WEATHER ROUNDUP FOR IOWA
NATIONAL WEATHER SERVICE DES MOINES IA
800 PM CST MON NOV 20 2017

NOTE: "FAIR" INDICATES FEW OR NO CLOUDS BELOW 12,000 FEET WITH NO
SIGNIFICANT WEATHER AND/OR OBSTRUCTIONS TO VISIBILITY.

* - THESE STATIONS ARE NOT NWS STATIONS...THUS NOT UNDER NWS
QUALITY CONTROL.  THEY ALSO DO NOT REPORT WEATHER SUCH
AS PRECIPITATION OR FOG.

IAZ001>003-012>014-020>022-031>034-043>046-210300-
   NORTHWEST IOWA

CITY           SKY/WX    TMP DP  RH WIND       PRES   REMARKS
CARROLL *      MOCLDY    48  28  46 SW17      29.61S
CHEROKEE *     PTCLDY    43  30  59 SW3       29.60S
DENISON *      CLOUDY    45  28  53 SW5       29.64S
LE MARS *      CLOUDY    39  28  65 CALM      29.62R
ORANGE CITY *  CLOUDY    39  28  65 W5        29.62R
SHELDON *      CLOUDY    39  27  60 SW5       29.60R
SIOUX CITY     CLOUDY    36  28  73 W3        29.63R
SPENCER        MOCLDY    42  28  57 W9        29.60R
STORM LAKE *   CLOUDY    43  28  56 SW12      29.59S
$$

IAZ055>058-069>071-079>083-090>094-210300-
   SOUTHWEST IOWA

CITY           SKY/WX    TMP DP  RH WIND       PRES   REMARKS
ATLANTIC *     CLOUDY    41  30  65 SW6       29.65S
AUDUBON *      PTCLDY    46  28  49 SW6       29.65R
CLARINDA *       N/A     43  30  61 S7          N/A
COUNCIL BLFS * CLOUDY    50  28  43 SW8       29.65S
CRESTON *      PTCLDY    50  30  46 SW14      29.67F
HARLAN  *      CLOUDY    43  28  56 SW5       29.67F
LAMONI         PTCLDY    50  31  48 SW14      29.69R
RED OAK *      MOCLDY    41  30  65 CALM      29.66F
SHENANDOAH *   PTCLDY    48  28  46 S7        29.67S
$$

IAZ047>049-059>061-072>074-084-210300-
   CENTRAL IOWA

CITY           SKY/WX    TMP DP  RH WIND       PRES   REMARKS
AMES           CLOUDY    46  33  60 SW7       29.63S
ANKENY *       CLOUDY    54  30  40 SW9       29.64F
BOONE *        CLOUDY    48  30  49 SW10      29.62R
CHARITON *     MOCLDY    52  30  43 SW15      29.66F
DES MOINES     CLOUDY    53  29  39 SW15      29.64F
GRINNELL*      CLOUDY    51  32  47 SW13      29.66S
KNOXVILLE *    CLOUDY    54  28  37 SW12G20   29.65S
MARSHALLTOWN   CLOUDY    50  32  50 SW10      29.61F
NEWTON *       CLOUDY    52  30  43 SW14      29.64S
PELLA *        CLOUDY    54  29  39 SW14      29.67S
PERRY *          N/A     44  28  52 SW10      29.63S
$$

IAZ004>006-015-016-023>025-035-036-210300-
   NORTH CENTRAL IOWA

CITY           SKY/WX    TMP DP  RH WIND       PRES   REMARKS
ALGONA *       CLOUDY    39  30  70 SW10      29.57R WCI  32
CLARION *      CLOUDY    41  32  70 S12       29.58S
ESTHERVILLE    MOCLDY    41  30  65 W10       29.58R
FORT DODGE *   CLOUDY    44  29  55 SW9       29.59F
MASON CITY     CLOUDY    45  28  51 SW15      29.57S
FOREST CITY *    N/A     37  30  75 W3        29.57R
WEBSTER CITY * PTCLDY    43  28  56 SW10      29.59R
IOWA FALLS *     N/A     44  32  62 S10       29.60F
$$

IAZ007>011-017>019-026>030-037>042-050>054-066-210300-
   NORTHEAST IOWA

CITY           SKY/WX    TMP DP  RH WIND       PRES   REMARKS
CEDAR RAPIDS   CLOUDY    50  31  48 S15       29.64F
CHARLES CITY * CLOUDY    46  30  53 SW10      29.57S
CLINTON *      CLOUDY    49  33  54 SW15      29.69S
DECORAH *      CLOUDY    48  32  53 SW14G22   29.53F
DUBUQUE        CLOUDY    49  31  49 SW18      29.62F
MONTICELLO *   CLOUDY    50  32  50 S10       29.63F
OELWEIN *      PTCLDY    46  32  57 SW12      29.60S
WATERLOO       PTCLDY    49  30  48 SW13      29.59F
$$

IAZ064-065-067-068-078-210300-
   EAST CENTRAL IOWA

CITY           SKY/WX    TMP DP  RH WIND       PRES   REMARKS
DAVENPORT      PTCLDY    50  31  48 S13       29.71S
IOWA CITY      CLOUDY    53  31  42 S10       29.69S
MT. PLEASANT * CLOUDY    51  31  46 S15       29.72R
MUSCATINE *    PTCLDY    50  32  50 S13       29.71S
QUAD CITIES    CLOUDY    51  31  46 S13       29.70S
$$

IAZ062-063-075>077-085>089-095>099-210300-
   SOUTHEAST IOWA

CITY           SKY/WX    TMP DP  RH WIND       PRES   REMARKS
BURLINGTON     MOCLDY    49  32  52 S12       29.73S
FAIRFIELD *    CLOUDY    54  28  37 S13G22    29.69S
FORT MADISON * PTCLDY    52  30  43 S12       29.74S
KEOKUK *       PTCLDY    52  30  43 S13       29.74R
OSKALOOSA *      N/A     49  31  50 SW13      29.67S
OTTUMWA        MOCLDY    52  30  43 SW16      29.68S
WASHINGTON *   CLOUDY    52  32  46 SW15      29.70S
$$

ABBREVIATIONS USED IN REMARKS
   TC - TEMPERATURES IN CELSIUS
  WCI - WIND CHILL INDEX
   HX - HEAT INDEX
  VSB - VISIBILITY
$$





USA.gov is the U.S. government's official web portal to all federal, state and local government web resources and services.